Home   Weather   Strathcona County   Past weeks

Flag for Canada Past Weather in Strathcona County, Alberta, Canada — Yesterday and Last 2 Weeks

Now
-6 °F

Frigid.


Feels Like: -6 °F
Forecast: -14 / -9 °F
Wind: 1 mph from Northeast

Location: Edmonton Municipal

Current Time: Dec 8, 2016 at 11:27:06 am

Latest Report: Dec 8, 2016 at 10:00 am


Visibility: N/A

Pressure: 30.90 "Hg (28.00 "Hg at 728m altitude)

Humidity: 82%

Dew Point: -10 °F

Location of Strathcona CountyLocation

Past Weather in Strathcona County — Graph

°F

Strathcona County Temperature Yesterday

Maximum temperature yesterday: -1 °F (at 3:00 pm)
Minimum temperature yesterday: -7 °F (at 4:00 am)
Average temperature yesterday: -4 °F

High & Low Weather Summary for the Past Weeks

 TemperatureHumidityPressure
High40 °F (Nov 25, 12:00 pm)100% (Nov 28, 3:00 am)30.93 "Hg (Nov 28, 3:00 am)
Low-12 °F (Dec 8, 4:00 am)54% (Nov 24, 2:00 pm)29.44 "Hg (Nov 27, 3:00 pm)
Average19 °F85%30.02 "Hg
* Reported Nov 23 10:00 am — Dec 8 10:00 am, Strathcona County, Weather by CustomWeather, © 2016

Note: Actual official high and low records may vary slightly from our data, if they occured in-between our weather recording intervals... More about our weather records

Advertising

Strathcona County Weather History for the Previous 24 Hours

Scroll right to see more
 ConditionsComfort  
Time TempWeatherWind HumidityBarometerVisibility
10:00 am
Thu, Dec 8
-6 °FFrigid.1 mph82%30.90 "HgN/A
9:00 am-8 °FFrigid.No wind83%30.91 "HgN/A
8:00 am-9 °FFrigid.2 mph83%30.92 "HgN/A
7:00 am-10 °FExtremely cold.2 mph83%30.92 "HgN/A
6:00 am-11 °FExtremely cold.3 mph82%30.93 "HgN/A
5:00 am-11 °FExtremely cold.1 mph82%30.93 "HgN/A
4:00 am-12 °FExtremely cold.1 mph82%30.93 "HgN/A
3:00 am-11 °FExtremely cold.3 mph82%30.93 "HgN/A
2:00 amN/A5 mphN/A30.93 "HgN/A
1:00 am-9 °FFrigid.3 mph82%30.93 "HgN/A
12:00 am-8 °FFrigid.2 mph82%30.92 "HgN/A
11:00 pm
Wed, Dec 7
-6 °FFrigid.3 mph81%30.91 "HgN/A
10:00 pm-5 °FFrigid.5 mph81%30.91 "HgN/A
9:00 pm-5 °FFrigid.6 mph79%30.91 "HgN/A
8:00 pm-6 °FFrigid.6 mph78%30.90 "HgN/A
7:00 pm-4 °FFrigid.7 mphN/A30.90 "HgN/A
6:00 pm-4 °FFrigid.3 mph79%30.90 "HgN/A
5:00 pm-4 °FFrigid.5 mph77%30.89 "HgN/A
4:00 pm-3 °FFrigid.6 mph75%30.87 "HgN/A
3:00 pm-1 °FFrigid.8 mph72%30.86 "HgN/A
2:00 pm-2 °FFrigid.8 mph72%30.85 "HgN/A
1:00 pm-2 °FFrigid.9 mph79%30.84 "HgN/A
12:00 pm-3 °FFrigid.9 mph74%30.84 "HgN/A
11:00 am-3 °FFrigid.9 mph75%30.84 "HgN/A
Weather by CustomWeather, © 2016

See weather overviewHow to use our weather pages